This is the latest recevied weather packets stored in our database for station/object K1RFS. If no packets are shown the sender has not sent any weather packets the latest 10 day(s).
| Time | Temp. | Humidity | Pressure | Rain* | Wind** | Luminosity | Snow |
|---|---|---|---|---|---|---|---|
| 1777788745 | 12.22° C | 35% | 1002.2 hPa | 0 mm | - | 0 W/m² | - |
| 1777788440 | 12.22° C | 34% | 1001.8 hPa | 0 mm | - | 0 W/m² | - |
| 1777788134 | 12.22° C | 34% | 1002.3 hPa | 0 mm | - | 0 W/m² | - |
| 1777787830 | 12.78° C | 33% | 1002 hPa | 0 mm | - | 0 W/m² | - |
| 1777787526 | 12.78° C | 32% | 1002.1 hPa | 0 mm | - | 0 W/m² | - |
| 1777787221 | 12.78° C | 32% | 1002.2 hPa | 0 mm | - | 0 W/m² | - |
| 1777786919 | 12.78° C | 33% | 1002.1 hPa | 0 mm | - | 0 W/m² | - |
| 1777786616 | 12.78° C | 34% | 1002 hPa | 0 mm | - | 0 W/m² | - |
| 1777786315 | 12.78° C | 34% | 1002.3 hPa | 0 mm | - | 0 W/m² | - |
| 1777786011 | 12.78° C | 34% | 1002.3 hPa | 0 mm | - | 0 W/m² | - |
| 1777785707 | 12.78° C | 35% | 1002.1 hPa | 0 mm | - | 0 W/m² | - |
| 1777785402 | 12.78° C | 34% | 1002.1 hPa | 0 mm | - | 0 W/m² | - |
| 1777785101 | 12.78° C | 35% | 1002.1 hPa | 0 mm | - | 0 W/m² | - |
| 1777784797 | 12.22° C | 35% | 1002.3 hPa | 0 mm | - | 0 W/m² | - |
| 1777784494 | 12.22° C | 35% | 1002.2 hPa | 0 mm | - | 0 W/m² | - |
| 1777784191 | 12.78° C | 35% | 1002.2 hPa | 0 mm | - | 0 W/m² | - |
| 1777783889 | 12.78° C | 34% | 1002.3 hPa | 0 mm | - | 0 W/m² | - |
| 1777783585 | 12.78° C | 34% | 1002.2 hPa | 0 mm | - | 0 W/m² | - |
| 1777783283 | 13.33° C | 33% | 1002.2 hPa | 0 mm | - | 0 W/m² | - |
| 1777782979 | 13.33° C | 32% | 1002.3 hPa | 0 mm | - | 0 W/m² | - |
| 1777782676 | 13.89° C | 31% | 1002.3 hPa | 0 mm | - | 0 W/m² | - |
| 1777782372 | 13.89° C | 31% | 1002.3 hPa | 0 mm | - | 0 W/m² | - |
| 1777782068 | 13.89° C | 30% | 1002.5 hPa | 0 mm | - | 0 W/m² | - |
| 1777781765 | 14.44° C | 30% | 1002.4 hPa | 0 mm | - | 0 W/m² | - |
| 1777781463 | 13.89° C | 30% | 1002.3 hPa | 0 mm | - | 0 W/m² | - |
* Rain latest hour (hover to see other rain measurements)
** Current wind speed in m/s (hover to see current wind gust speed)